User: anonymous   Login
Location: Unspecified
(50.0000°N, 15.0000°E)
Time: 04:36:38
(UTC+02:00)
Language:

ISS - Orbit

View from above orbital plane
View from above orbital plane
View from above satellite
View from above satellite

Ground track
Ground track

The orbit data is extracted from the following two-line orbital elements,

1 25544U 98067A   21300.84054079  .00003395  00000-0  70218-4 0  9995
2 25544  51.6444  46.8005 0003881 144.9041   1.4506 15.48806549309156
Epoch (UTC): 27 October 2021 20:10:22
Eccentricity: 0.0003881
inclination: 51.6444°
perigee height: 417 km
apogee height: 423 km
right ascension of ascending node: 46.8005°
argument of perigee: 144.9041°
revolutions per day: 15.48806549
mean anomaly at epoch: 1.4506°
orbit number at epoch: 30915

The dashed part of the orbit path shows where the satellite is in the earth's shadow,  

DLR